Location: Killam
(52.7910°N, 111.8608°W)
Time: 05:14:54
(UTC+00:00)

SO-50 - Visible Passes

Search period start: 13 March 2026 00:00
Search period end: 23 March 2026 00:00
Orbit: 568 x 673 km, 64.6° (Epoch: 12 March)

Date Brightness Start Highest point End Pass type
(mag) Time Alt. Az. Time Alt. Az. Time Alt. Az.
13 Mar ? 03:11:41 10° SW 03:16:22 76° NW 03:21:12 10° NE visible
13 Mar ? 04:53:01 10° W 04:57:04 27° NNW 04:59:16 19° NNE visible
13 Mar ? 06:34:54 10° NW 06:36:28 16° NNW 06:36:28 16° NNW visible
14 Mar ? 03:29:40 10° WSW 03:34:15 49° NW 03:38:56 10° NE visible
14 Mar ? 05:11:30 10° WNW 05:15:15 22° NNW 05:16:58 19° NNE visible
14 Mar ? 06:53:00 10° NW 06:54:08 15° NNW 06:54:08 15° NNW visible
15 Mar ? 02:07:15 10° SSW 02:11:54 69° SE 02:16:40 10° NE visible
15 Mar ? 03:47:54 10° W 03:52:14 34° NNW 03:56:39 10° NE visible
15 Mar ? 05:29:54 10° NW 05:33:30 20° N 05:34:30 19° NNE visible
15 Mar ? 07:10:54 10° NW 07:11:40 13° NNW 07:11:40 13° NNW visible
16 Mar ? 02:24:56 10° SW 02:29:38 74° NW 02:34:27 10° NE visible
16 Mar ? 04:06:18 10° WNW 04:10:20 26° NNW 04:14:26 10° NE visible
16 Mar ? 05:48:11 10° NW 05:51:45 20° N 05:51:55 20° N visible
16 Mar ? 07:28:41 10° NW 07:29:05 12° NW 07:29:05 12° NW visible
17 Mar ? 02:42:56 10° WSW 02:47:30 48° NW 02:52:11 10° NE visible
17 Mar ? 04:24:46 10° WNW 04:28:31 22° NNW 04:32:06 11° NE visible
17 Mar ? 06:06:15 10° NW 06:09:15 21° N 06:09:15 21° N visible
18 Mar ? 03:01:10 10° W 03:05:29 34° NNW 03:09:53 10° NE visible
18 Mar ? 04:43:10 10° NW 04:46:44 20° N 04:49:23 14° NE visible
18 Mar ? 06:24:08 10° NW 06:26:32 21° N 06:26:32 21° N visible
19 Mar ? 03:19:33 10° WNW 03:23:34 26° NNW 03:27:39 10° NE visible
19 Mar ? 05:01:24 10° NW 05:04:59 20° N 05:06:38 17° NNE visible
19 Mar ? 06:41:54 10° NW 06:43:47 21° NNW 06:43:47 21° NNW visible
20 Mar ? 03:38:00 10° WNW 03:41:44 22° NNW 03:45:31 10° NE visible
20 Mar ? 05:19:27 10° NW 05:23:13 22° NNE 05:23:51 21° NNE visible
20 Mar ? 06:59:36 10° NW 07:01:00 18° NNW 07:01:00 18° NNW visible
21 Mar ? 02:14:23 10° W 02:18:41 33° NNW 02:23:04 10° NE visible
21 Mar ? 03:56:22 10° NW 03:59:57 20° N 04:03:33 10° NE visible
21 Mar ? 05:37:19 10° NW 05:41:03 26° NNE 05:41:03 26° NNE visible
21 Mar ? 07:17:18 10° NW 07:18:11 15° NW 07:18:11 15° NW visible
22 Mar ? 02:32:45 10° WNW 02:36:46 26° NNW 02:40:49 10° NE visible
22 Mar ? 04:14:36 10° NW 04:18:11 20° N 04:21:04 13° NE visible
22 Mar ? 05:55:04 10° NW 05:58:14 29° N 05:58:14 29° N visible
22 Mar ? 07:35:02 10° NW 07:35:22 12° NW 07:35:22 12° NW visible
